Weather in Dnipro

Ukraine / Dnipropetrovsk Region     48°27′52″N   35°02′46″E
temp.,
°C
wind,
m/s
gust,
m/s
humid.,
%
clouds,
%
prec.,
mm/h
press.,
hPa
HPBL,
m
22 april, thu
thu2200:00+9wsw237316 0.1 101856
03:00+8ssw23765 0.1 101958
06:00+7ssw23865 0.0 102075
09:00+12ssw45665 0.0 1020440
12:00+16sw44475 0.3 10211732
15:00+16sw4443100 0.6 10202016
18:00+15sw2448100 0.1 1020550
21:00+13ssw235879 0.1 1020134
23 april, fri
fri2300:00+12s4966100 0.0 1020316
03:00+9ssw49823 0.1 1020270
06:00+8s41082100 0.0 1020294
09:00+13ssw610635 0.0 1019622
12:00+16ssw71049100 0.0 10181330
15:00+17ssw81247100 0.1 10162068
18:00+13wsw81279100 2.0 10161153
21:00+9wnw4588100 9.3 1017480
24 april, sat
sat2400:00+7nw5784100 1.6 1017636
03:00+6wnw37865 1.6 1017351
06:00+5w38854 0.0 1018284
09:00+8w46685 0.0 1018793
12:00+12w6938100 0.1 10182660
15:00+10wnw9115691 0.3 10181583
18:00+9nw7114823 0.4 10191918
21:00+6wnw48500 0.4 1021696
25 april, sun
sun2500:00+5w34600 0.0 1022166
03:00+4w35620 0.0 1022163
06:00+3w24645 0.0 1022109
09:00+8wsw34455 0.0 1022737
12:00+11wsw34355 0.0 10211901
15:00+13wsw333121 0.0 10202026
18:00+12sw233381 0.0 10191986
21:00+9s474672 0.0 1019220
26 april, mon
mon2600:00+8ssw494849 0.0 1018225
03:00+6w117484 0.0 101887
06:00+6wsw127996 0.0 101765
09:00+7w3588100 2.6 1017860
12:00+4wnw2695100 3.4 1018650
15:00+6w248993 3.6 1017456
18:00+9sw246437 0.2 1015934
21:00+7ssw237076 0.6 101655